Temp
81 81 79 74 61 59 56 62 71 67 69 76 79 75 71 68 67 57 71 74 76 77 78 81 83 83 83 83 83 83 83 83 83 83 83 83 83 83 84 83 83 83 84 83 83 83 83 83 83
81 83 74 68 57 51 54 66 65 70 74 76 77 76 72 64 72 69 70 76 78 77 78 80 82 83 83 83 83 83 83 83 83 83 83 83 83 84 84 84 84 83 82 84 84 83 84 84 84
84 82 69 63 58 53 56 67 69 74 77 76 73 76 73 66 72 72 76 77 78 77 76 80 82 83 83 83 83 83 83 83 83 83 83 83 84 84 84 83 84 84 84 84 84 83 83 84 84
81 74 70 62 60 66 67 70 73 73 76 77 74 68 74 77 75 77 78 78 76 74 75 81 83 83 83 83 83 83 83 83 83 83 83 83 84 84 83 83 83 83 84 84 84 84 83 84 84
77 70 62 61 64 70 73 75 76 72 72 74 74 66 67 76 79 79 78 79 76 74 76 80 83 83 83 83 83 83 83 83 83 83 83 83 83 84 83 83 83 83 83 84 84 84 84 83 84
69 69 60 56 65 72 75 78 76 73 74 73 71 68 66 75 76 78 80 78 78 76 77 80 83 83 83 83 83 83 83 83 83 83 83 83 83 83 83 83 83 83 84 84 84 84 84 83 83
69 64 62 63 66 69 74 79 74 72 72 72 76 64 65 72 77 80 79 78 79 79 78 78 78 81 83 83 83 83 83 83 83 83 83 83 83 83 83 83 83 84 84 84 84 84 83 83 83
72 69 67 66 66 67 77 78 79 75 73 81 78 63 61 72 78 77 78 78 77 77 78 76 77 77 76 78 83 83 83 83 83 83 83 83 83 83 83 82 83 83 84 84 84 84 83 83 83
78 64 63 68 69 70 79 75 80 83 76 79 80 74 76 78 79 76 74 75 75 77 76 75 76 74 75 76 80 83 83 83 83 83 83 81 76 78 80 81 83 83 83 84 83 82 82 83 83
71 64 69 78 77 74 78 76 77 75 74 75 75 78 78 78 76 73 73 71 72 74 74 74 74 74 74 81 76 75 77 77 76 76 76 74 75 76 79 80 83 83 83 83 83 82 83 82 74
73 69 79 80 81 82 78 78 81 73 69 74 72 74 76 76 75 74 74 75 74 75 75 75 74 74 74 76 75 74 74 74 74 74 74 74 74 74 74 73 74 74 80 75 77 77 75 75 75
73 81 83 83 83 81 77 81 76 76 75 81 79 78 77 75 75 74 74 75 76 76 76 77 76 74 74 75 75 74 74 75 74 74 74 73 72 71 73 72 72 72 73 72 72 72 74 74 74
76 78 83 86 84 83 83 78 76 76 80 82 80 79 76 76 76 78 78 78 76 76 78 78 78 76 76 74 75 75 74 74 73 74 74 74 72 71 71 71 72 73 73 72 71 72 72 73 75
78 78 81 83 81 85 80 78 78 78 81 80 78 76 77 77 77 78 78 77 76 78 79 80 79 78 76 76 74 75 76 75 74 74 74 74 73 73 72 72 72 73 73 72 72 71 71 72 73
79 75 78 78 78 79 80 72 72 78 80 78 78 77 78 78 79 78 79 78 78 77 79 79 78 78 76 76 75 76 76 78 73 74 75 75 74 74 74 73 73 73 73 73 72 72 72 72 73
71 70 65 76 78 79 76 62 72 77 77 75 76 78 79 78 80 81 82 81 80 78 76 77 84 79 78 77 75 76 73 74 75 74 75 75 76 75 74 73 73 73 73 72 71 71 72 70 70
65 60 66 73 79 78 74 64 73 77 76 74 75 77 78 78 78 79 83 82 80 80 78 78 79 77 76 74 75 74 74 74 74 74 73 74 75 76 74 74 73 73 72 73 73 71 71 70 70
62 63 67 67 74 76 72 70 74 76 76 74 75 76 76 78 78 80 82 84 81 81 80 80 79 76 75 74 74 73 73 73 73 73 73 75 73 75 74 72 74 75 73 72 72 70 71 71 70
70 66 69 71 77 73 69 69 72 75 76 74 74 74 75 77 80 81 83 85 81 80 78 78 76 74 74 72 72 72 72 72 72 72 74 74 73 76 74 72 73 74 72 72 72 70 70 71 70
68 66 67 75 77 72 68 68 72 75 75 76 76 76 77 78 76 78 80 82 80 79 78 78 78 74 75 74 73 74 73 72 72 74 74 74 74 75 75 72 73 73 71 72 71 70 68 69 69
62 64 66 69 74 72 69 64 68 72 75 77 79 80 80 79 75 75 77 79 80 78 78 78 77 76 76 75 74 72 72 71 71 72 72 74 75 76 74 74 73 72 70 71 72 71 70 67 69
60 73 74 74 67 59 71 54 60 64 68 72 76 76 79 77 79 78 78 79 80 80 80 80 78 77 77 75 74 73 72 69 69 72 72 73 76 76 76 74 74 72 72 71 72 72 71 69 68
68 76 74 74 63 62 63 57 63 62 65 69 74 78 80 80 81 80 80 81 83 83 81 79 78 78 79 76 77 75 72 73 72 71 70 71 76 76 76 72 73 72 73 72 72 72 71 70 68
76 70 66 62 58 51 60 60 63 60 68 72 73 78 81 81 82 83 83 83 83 82 79 79 77 77 77 76 74 74 74 73 72 72 72 75 74 74 74 75 74 74 74 73 72 72 72 71 69
67 61 49 49 49 51 57 58 68 70 71 76 76 78 81 83 81 83 80 80 80 80 79 78 77 76 75 75 75 75 75 73 73 74 73 73 73 71 72 74 73 74 74 73 71 70 71 71 70
63 62 52 47 45 52 56 54 68 72 75 78 80 81 83 83 81 83 83 81 81 82 80 79 77 77 76 76 75 75 76 72 73 75 74 74 74 74 73 73 74 74 75 74 72 70 71 71 70
62 57 60 53 45 50 54 62 71 71 71 74 74 80 81 84 83 83 85 84 83 82 81 80 78 78 78 78 74 74 75 75 74 75 75 75 75 77 74 73 74 75 74 74 72 71 71 71 71
66 69 58 52 48 44 52 54 59 65 67 71 73 76 80 84 84 85 85 87 85 84 84 83 79 80 78 79 78 77 76 75 75 74 74 75 76 75 75 74 74 73 75 74 73 71 71 71 70
63 57 54 54 50 48 47 53 65 70 71 72 74 76 77 78 81 80 83 86 86 84 85 82 78 79 75 77 76 76 75 77 76 75 75 75 75 74 73 73 72 73 74 74 73 73 72 70 69
63 63 57 53 50 46 49 55 70 72 76 76 74 77 78 79 78 80 77 79 74 81 76 72 79 78 76 76 76 76 76 76 75 74 76 76 75 75 74 73 71 72 73 73 72 70 70 69 67
MSLP
1007.27 1007.44 1007.78 1008.02 1008.98 1010.04 1010.71 1010.63 1010.27 1010.52 1010.66 1010.45 1010.94 1011.32 1012.10 1012.97 1013.40 1014.67 1014.64 1015.04 1015.08 1015.39 1015.28 1015.46 1015.62 1015.91 1016.11 1016.07 1016.20 1016.47 1016.49 1016.62 1016.68 1016.85 1016.80 1016.92 1017.10 1017.10 1017.26 1017.12 1017.11 1017.29 1017.54 1017.64 1017.86 1017.87 1018.01 1018.11 1018.13
1007.01 1007.40 1008.33 1008.32 1009.53 1010.58 1010.69 1010.38 1010.12 1010.15 1010.25 1010.44 1010.86 1011.25 1012.02 1013.16 1013.59 1014.32 1014.79 1014.95 1015.06 1015.42 1015.42 1015.66 1015.91 1016.07 1016.26 1016.48 1016.40 1016.62 1016.70 1016.85 1016.98 1017.08 1017.12 1017.11 1017.29 1017.31 1017.63 1017.46 1017.49 1017.58 1017.82 1017.84 1017.97 1018.12 1018.19 1018.44 1018.52
1006.62 1007.44 1008.49 1008.90 1009.77 1010.10 1010.08 1009.86 1009.90 1009.98 1010.14 1010.38 1011.08 1011.50 1012.29 1013.33 1013.79 1014.27 1014.21 1014.82 1015.23 1015.61 1015.73 1015.78 1016.01 1016.22 1016.32 1016.54 1016.76 1016.78 1016.93 1017.04 1017.32 1017.45 1017.53 1017.38 1017.31 1017.51 1017.87 1017.82 1017.84 1017.80 1017.88 1018.09 1018.22 1018.37 1018.46 1018.58 1018.80
1006.49 1007.78 1008.54 1008.68 1009.58 1009.44 1009.24 1009.22 1009.50 1009.98 1010.31 1010.48 1011.22 1012.10 1012.82 1013.24 1013.73 1014.02 1014.62 1014.86 1015.46 1015.90 1016.02 1016.01 1016.19 1016.39 1016.47 1016.72 1016.95 1017.08 1017.25 1017.32 1017.52 1017.72 1017.78 1017.94 1017.74 1017.81 1017.97 1017.90 1018.08 1018.14 1018.07 1018.14 1018.30 1018.48 1018.68 1018.78 1018.96
1006.66 1007.79 1008.65 1009.16 1009.30 1009.16 1008.98 1009.02 1009.46 1009.96 1010.37 1010.84 1011.28 1012.86 1013.62 1013.92 1013.64 1014.20 1014.85 1015.20 1015.62 1016.12 1016.22 1016.29 1016.36 1016.51 1016.73 1016.98 1017.12 1017.33 1017.55 1017.64 1017.61 1017.83 1017.83 1018.04 1017.97 1017.94 1018.10 1018.11 1018.18 1018.32 1018.30 1018.33 1018.43 1018.65 1018.88 1019.04 1019.17
1007.25 1008.01 1008.90 1009.42 1009.28 1009.06 1009.03 1008.96 1009.32 1010.10 1010.59 1011.24 1011.86 1012.84 1014.21 1014.19 1014.15 1014.53 1014.96 1015.49 1015.74 1016.15 1016.25 1016.33 1016.48 1016.66 1016.89 1017.06 1017.24 1017.46 1017.52 1017.55 1017.68 1017.81 1017.86 1017.96 1018.02 1017.98 1018.09 1018.18 1018.27 1018.32 1018.41 1018.47 1018.62 1018.81 1019.02 1019.29 1019.50
1007.50 1008.56 1008.98 1009.18 1009.32 1009.05 1009.05 1009.08 1009.30 1009.96 1010.51 1011.12 1011.62 1013.04 1014.34 1014.57 1014.65 1014.91 1015.24 1015.69 1015.95 1016.03 1016.30 1016.52 1016.70 1016.76 1016.85 1016.95 1017.17 1017.30 1017.27 1017.40 1017.65 1017.78 1017.91 1017.97 1018.00 1018.02 1018.11 1018.22 1018.18 1018.18 1018.38 1018.60 1018.73 1018.94 1019.23 1019.47 1019.54
1007.50 1008.16 1008.70 1008.72 1008.64 1008.59 1008.84 1009.03 1009.40 1010.25 1010.56 1010.88 1011.48 1012.92 1014.13 1014.34 1014.78 1015.24 1015.62 1016.03 1016.28 1016.36 1016.47 1016.67 1016.75 1016.88 1016.84 1016.95 1017.10 1017.14 1017.21 1017.37 1017.64 1017.72 1017.82 1017.87 1018.10 1018.14 1018.07 1018.18 1018.18 1018.20 1018.28 1018.67 1018.90 1019.00 1019.20 1019.48 1019.69
1007.30 1008.02 1008.29 1007.97 1007.96 1008.13 1008.63 1008.98 1009.77 1010.06 1010.72 1010.96 1011.31 1012.10 1012.90 1014.08 1014.83 1015.39 1015.91 1016.32 1016.56 1016.72 1016.85 1016.74 1016.73 1016.86 1016.90 1017.07 1017.14 1017.04 1017.23 1017.40 1017.43 1017.60 1017.82 1017.80 1018.00 1018.16 1018.10 1018.13 1018.09 1018.18 1018.33 1018.59 1018.90 1019.14 1019.29 1019.43 1019.68
1007.42 1007.89 1007.23 1006.60 1006.78 1007.41 1008.17 1008.69 1009.38 1010.24 1010.98 1011.25 1011.72 1012.30 1013.28 1014.22 1014.92 1015.33 1015.92 1016.37 1016.64 1016.78 1016.98 1016.97 1016.83 1017.00 1017.02 1016.83 1017.02 1017.13 1017.36 1017.44 1017.56 1017.63 1017.87 1017.98 1017.91 1017.94 1018.00 1018.10 1018.18 1018.32 1018.46 1018.52 1018.78 1019.14 1019.23 1019.39 1019.92
1007.11 1006.92 1006.36 1006.24 1006.11 1006.59 1007.84 1008.82 1009.35 1010.19 1011.06 1011.17 1011.45 1012.44 1013.50 1014.32 1014.98 1015.36 1015.70 1015.74 1015.94 1016.38 1016.84 1016.91 1016.78 1016.94 1016.94 1016.76 1016.85 1017.12 1017.35 1017.64 1017.72 1017.82 1017.88 1018.07 1017.90 1017.98 1018.01 1018.26 1018.31 1018.51 1018.52 1018.82 1018.84 1018.97 1019.41 1019.57 1019.85
1006.56 1005.96 1005.64 1005.85 1006.10 1006.82 1007.56 1008.44 1009.42 1009.81 1009.95 1010.63 1011.64 1012.23 1013.22 1014.05 1014.55 1015.01 1015.37 1015.62 1015.87 1016.06 1016.19 1016.37 1016.42 1016.68 1016.74 1016.69 1016.77 1016.98 1017.18 1017.47 1017.74 1017.67 1017.89 1017.98 1017.84 1018.01 1018.09 1018.35 1018.57 1018.66 1018.73 1019.06 1019.21 1019.37 1019.36 1019.74 1019.86
1006.20 1006.08 1005.68 1005.62 1006.10 1006.43 1007.30 1008.05 1008.84 1009.76 1009.92 1010.84 1011.64 1012.42 1013.05 1013.72 1014.05 1014.42 1014.60 1015.11 1015.46 1015.72 1015.78 1015.87 1016.08 1016.38 1016.50 1016.58 1016.61 1016.86 1016.90 1017.24 1017.53 1017.59 1017.61 1017.63 1017.78 1017.90 1018.13 1018.20 1018.39 1018.56 1018.85 1019.04 1019.42 1019.58 1019.58 1019.57 1019.76
1006.78 1006.32 1006.01 1006.05 1006.28 1006.74 1007.48 1008.46 1008.90 1010.09 1010.36 1011.20 1011.88 1012.50 1012.84 1013.11 1013.44 1014.11 1014.52 1014.90 1015.34 1015.48 1015.45 1015.58 1015.84 1015.91 1016.11 1016.36 1016.42 1016.63 1016.68 1016.93 1017.39 1017.43 1017.46 1017.40 1017.69 1017.68 1017.85 1018.11 1018.19 1018.43 1018.69 1018.93 1019.19 1019.47 1019.70 1019.67 1019.74
1006.84 1006.66 1006.41 1006.61 1006.76 1007.28 1007.85 1008.94 1009.29 1009.57 1010.35 1011.26 1011.76 1012.43 1012.76 1012.98 1013.37 1013.41 1013.70 1014.17 1014.53 1015.03 1015.18 1015.36 1015.61 1015.68 1015.92 1016.03 1016.22 1016.39 1016.51 1016.63 1016.82 1016.83 1017.00 1017.28 1017.43 1017.42 1017.44 1017.76 1017.92 1017.99 1018.18 1018.40 1018.88 1019.25 1019.32 1019.50 1019.66
1007.66 1007.72 1007.54 1007.36 1007.01 1007.38 1007.82 1008.93 1009.70 1010.06 1010.45 1011.57 1011.97 1012.28 1012.48 1012.90 1012.93 1013.09 1013.23 1013.72 1014.10 1014.44 1014.82 1015.07 1015.33 1015.69 1015.88 1016.03 1016.18 1016.34 1016.31 1016.12 1016.19 1016.36 1016.84 1016.97 1017.13 1017.27 1017.39 1017.66 1017.60 1017.69 1017.68 1017.98 1018.55 1019.00 1019.22 1019.59 1019.70
1008.64 1008.50 1008.07 1007.51 1007.16 1007.28 1007.98 1009.28 1009.96 1010.58 1010.84 1011.41 1011.83 1012.09 1012.19 1012.39 1012.66 1012.72 1012.81 1013.24 1013.53 1013.90 1014.43 1014.86 1014.98 1015.38 1015.78 1016.11 1016.32 1016.25 1015.98 1016.15 1016.18 1016.34 1016.84 1017.00 1017.03 1017.12 1017.34 1017.44 1017.40 1017.64 1017.70 1017.85 1018.41 1018.96 1019.24 1019.58 1019.96
1008.69 1008.76 1008.08 1007.54 1007.55 1007.50 1008.19 1008.98 1009.80 1010.25 1010.74 1011.07 1011.38 1011.63 1011.77 1011.79 1011.84 1012.00 1012.24 1012.76 1013.17 1013.71 1014.11 1014.42 1014.79 1015.24 1015.69 1016.26 1016.37 1016.37 1016.29 1016.35 1016.45 1016.52 1016.89 1017.04 1017.12 1017.07 1017.24 1017.48 1017.50 1017.47 1017.79 1018.04 1018.44 1018.88 1019.32 1019.63 1020.02
1007.70 1008.08 1007.87 1007.58 1007.50 1007.92 1008.37 1009.25 1009.64 1009.96 1010.30 1010.54 1010.89 1010.88 1010.96 1011.16 1010.79 1011.16 1011.65 1012.30 1013.02 1013.70 1014.14 1014.35 1014.64 1014.98 1015.60 1016.02 1016.38 1016.63 1016.68 1016.44 1016.35 1016.54 1016.61 1016.90 1017.06 1017.06 1017.06 1017.33 1017.31 1017.36 1017.62 1017.89 1018.50 1019.05 1019.45 1019.83 1020.12
1008.03 1008.19 1008.58 1007.98 1007.57 1008.12 1008.89 1009.41 1009.57 1009.48 1008.76 1009.08 1009.68 1010.04 1010.15 1010.29 1010.66 1010.86 1011.37 1011.99 1012.58 1012.99 1013.58 1014.13 1014.40 1014.81 1015.21 1015.35 1015.88 1016.14 1016.24 1016.26 1016.37 1016.24 1016.39 1016.69 1016.84 1016.91 1017.11 1017.36 1017.40 1017.44 1017.77 1018.01 1018.53 1018.97 1019.66 1019.89 1020.11
1008.27 1008.04 1008.18 1007.83 1007.90 1008.43 1009.06 1009.56 1009.18 1009.30 1009.87 1009.75 1009.35 1009.03 1009.44 1009.84 1010.28 1010.76 1011.18 1011.64 1012.16 1012.76 1013.28 1013.57 1013.98 1014.43 1014.84 1015.16 1015.70 1016.07 1016.30 1016.46 1016.50 1016.42 1016.36 1016.38 1016.61 1016.73 1017.06 1017.24 1017.12 1017.58 1017.84 1018.10 1018.39 1018.82 1019.21 1019.67 1019.93
1007.54 1007.34 1007.64 1008.04 1008.22 1008.89 1008.98 1010.05 1008.73 1009.00 1009.36 1009.01 1008.92 1008.82 1008.91 1009.30 1009.51 1009.96 1010.68 1011.33 1011.86 1012.00 1012.44 1013.06 1013.62 1014.12 1014.50 1015.00 1015.48 1015.90 1016.08 1016.54 1016.32 1016.21 1016.16 1016.37 1016.42 1016.48 1016.72 1017.06 1017.19 1017.43 1017.45 1018.02 1018.14 1018.44 1018.91 1019.30 1019.61
1006.35 1006.79 1007.70 1008.16 1009.01 1009.34 1010.00 1010.36 1007.60 1008.48 1008.52 1008.08 1008.03 1008.12 1008.20 1008.44 1008.93 1009.52 1009.92 1010.29 1010.71 1011.54 1012.07 1012.62 1013.28 1013.90 1014.26 1014.72 1014.99 1015.52 1015.88 1016.04 1016.12 1016.26 1016.28 1016.34 1016.27 1016.34 1016.48 1016.90 1017.24 1017.53 1017.33 1017.64 1017.86 1018.22 1018.60 1019.00 1019.37
1005.62 1007.34 1008.67 1009.50 1010.33 1010.96 1009.76 1010.03 1007.61 1007.03 1005.44 1006.52 1007.30 1007.26 1007.19 1007.68 1008.23 1008.60 1009.08 1009.77 1010.59 1011.34 1011.83 1012.44 1012.94 1013.43 1013.97 1014.40 1014.73 1015.10 1015.41 1015.81 1016.22 1016.27 1016.34 1016.19 1016.43 1016.50 1016.52 1016.72 1016.89 1016.92 1017.04 1017.51 1017.77 1018.08 1018.43 1018.78 1018.99
1006.02 1007.82 1009.84 1011.23 1011.69 1010.88 1010.05 1010.19 1006.71 1004.28 1004.60 1004.81 1005.18 1006.20 1006.23 1006.74 1007.35 1007.72 1008.50 1009.20 1009.95 1010.56 1011.22 1012.08 1012.72 1013.20 1013.62 1014.06 1014.50 1014.71 1015.01 1015.53 1015.92 1016.00 1016.08 1016.22 1016.38 1016.58 1016.51 1016.58 1016.77 1016.84 1016.86 1017.22 1017.72 1018.14 1018.28 1018.56 1018.83
1006.01 1006.72 1008.55 1010.22 1011.44 1010.54 1009.86 1008.60 1005.48 1003.79 1003.77 1003.72 1004.17 1004.77 1005.30 1005.70 1005.90 1006.63 1007.28 1007.95 1008.74 1009.59 1010.44 1011.36 1012.17 1012.66 1013.18 1013.67 1014.08 1014.38 1014.53 1015.14 1015.44 1015.44 1015.59 1015.76 1015.99 1015.93 1015.98 1016.24 1016.36 1016.52 1016.77 1017.09 1017.48 1018.00 1018.20 1018.39 1018.60
1005.72 1006.64 1007.18 1009.04 1010.76 1010.69 1009.36 1007.27 1004.72 1003.82 1003.82 1003.85 1004.01 1004.42 1004.70 1004.77 1005.55 1006.08 1006.65 1007.28 1007.99 1009.06 1009.73 1010.45 1011.44 1012.08 1012.69 1012.97 1013.62 1014.08 1014.42 1014.76 1015.13 1015.27 1015.33 1015.48 1015.71 1015.91 1016.23 1016.23 1016.46 1016.46 1016.65 1016.94 1017.46 1017.68 1017.82 1018.00 1018.14
1004.19 1005.40 1007.26 1008.98 1010.18 1010.56 1009.22 1007.61 1005.86 1004.36 1004.28 1004.03 1004.30 1004.08 1004.16 1004.43 1004.91 1005.65 1006.09 1006.63 1007.39 1007.96 1008.91 1010.22 1010.93 1011.47 1012.11 1012.63 1013.01 1013.57 1013.94 1014.34 1014.55 1014.98 1015.26 1015.34 1015.47 1015.79 1016.00 1016.10 1016.49 1016.85 1016.72 1016.73 1017.03 1017.39 1017.54 1018.05 1018.18
1004.42 1005.42 1007.12 1008.56 1009.21 1009.87 1009.20 1007.38 1004.09 1003.29 1003.24 1003.44 1003.88 1003.75 1003.78 1004.24 1004.70 1005.07 1005.46 1006.10 1007.20 1008.37 1009.86 1010.91 1011.39 1011.95 1012.48 1012.59 1012.91 1013.42 1013.80 1013.98 1014.32 1014.64 1014.98 1015.18 1015.30 1015.49 1015.72 1016.07 1016.34 1016.49 1016.44 1016.65 1017.00 1017.15 1017.38 1018.04 1018.59
1003.82 1004.49 1005.83 1008.15 1009.40 1009.45 1008.40 1005.57 1003.35 1002.56 1002.19 1002.88 1003.45 1003.32 1003.58 1003.84 1004.02 1004.45 1005.38 1006.04 1008.14 1010.09 1011.17 1012.15 1012.17 1012.66 1012.90 1012.88 1013.00 1013.20 1013.55 1013.85 1014.16 1014.47 1014.69 1014.82 1014.98 1015.16 1015.44 1015.86 1016.23 1016.28 1016.29 1016.59 1017.08 1017.70 1017.90 1018.13 1018.56
Wind_Speed
6 5 2 2 7 6 3 3 2 7 8 6 10 4 5 5 1 4 4 7 8 7 7 11 16 17 18 17 17 17 18 18 17 16 17 17 15 15 12 13 13 11 10 12 11 11 13 13 13
4 5 3 2 7 4 2 2 4 5 5 8 8 9 5 4 5 9 8 9 10 7 7 9 15 16 17 15 16 16 16 16 15 14 14 16 14 13 10 11 11 11 10 10 10 11 10 13 13
7 6 2 5 3 4 4 4 5 6 6 4 4 6 4 3 9 11 7 12 9 5 5 11 15 15 17 15 13 15 14 15 13 12 11 12 13 12 8 9 8 9 9 10 10 10 11 11 12
4 3 2 5 4 3 5 5 7 9 5 5 9 6 5 8 10 6 13 12 8 5 4 12 15 15 14 13 12 12 12 13 12 9 9 8 9 9 7 7 6 5 7 9 8 10 10 11 11
4 3 5 4 4 2 5 10 8 5 4 7 3 4 6 3 13 17 12 11 11 7 5 8 12 13 12 12 11 11 10 10 11 8 8 5 6 7 6 5 4 2 4 6 6 9 9 10 10
4 2 5 3 4 7 7 9 6 9 9 8 9 5 3 6 16 13 13 11 10 9 6 7 12 12 11 11 10 10 9 9 9 8 7 5 3 5 5 4 3 2 3 5 6 8 9 8 7
6 4 3 5 4 6 9 6 7 9 8 5 6 5 3 8 10 9 9 9 9 9 8 5 5 9 12 12 11 11 11 9 8 6 5 4 3 2 3 4 5 4 4 6 7 7 8 8 8
5 3 4 4 9 4 10 4 10 6 5 5 7 5 6 9 9 9 9 9 8 7 7 6 5 5 5 5 11 11 10 9 8 6 5 4 3 3 3 3 4 6 6 5 6 7 8 8 8
2 6 2 4 9 5 12 6 7 4 9 0 3 7 8 15 11 9 8 6 5 6 5 5 5 5 5 4 5 10 10 8 9 6 6 4 2 2 3 5 5 6 6 7 7 6 7 8 8
5 3 4 3 6 13 14 13 14 5 9 2 6 12 16 17 13 11 10 8 7 7 5 4 4 4 5 5 5 4 3 3 3 3 2 2 2 3 5 6 7 6 5 5 6 7 7 7 2
3 5 4 6 9 19 15 9 3 15 5 6 17 18 18 17 13 11 11 13 14 9 7 7 6 5 5 4 3 2 2 2 2 3 4 3 2 1 2 2 1 1 4 1 1 2 2 4 4
2 7 7 7 10 13 17 15 8 12 4 14 10 18 19 17 15 14 13 11 11 12 12 10 9 7 7 4 3 3 3 3 2 4 5 4 2 2 2 2 2 2 2 2 1 1 2 3 4
3 4 5 6 12 11 13 14 8 14 11 14 12 17 17 17 16 14 13 10 8 11 12 12 11 9 7 6 3 3 4 3 4 4 4 4 3 3 3 3 3 3 2 2 2 2 3 3 4
1 4 1 8 4 5 5 5 10 10 14 14 15 15 16 19 17 12 10 10 10 10 11 11 11 9 6 7 5 4 3 4 4 4 4 4 3 3 3 3 3 3 3 4 3 3 3 3 3
3 3 6 7 5 5 4 4 3 16 17 16 15 14 15 16 15 16 14 12 13 9 8 11 11 8 7 7 5 4 5 5 5 5 5 5 4 4 4 3 3 3 4 5 3 3 3 3 3
5 5 4 2 2 2 7 4 7 13 18 15 13 13 16 12 14 14 13 12 12 9 9 8 10 10 10 8 4 3 5 4 4 4 3 5 4 4 4 3 3 3 4 4 4 3 2 2 3
7 0 3 1 3 2 4 2 9 12 13 13 13 14 13 12 8 8 12 12 11 12 11 10 8 9 9 5 4 3 4 2 3 2 3 4 5 4 3 3 3 3 1 2 2 1 2 3 3
5 3 5 4 3 5 3 4 15 16 14 15 14 13 12 11 14 10 13 13 11 12 12 12 8 8 7 5 3 2 1 1 2 3 4 3 4 4 3 2 4 3 3 3 2 2 2 2 4
4 2 3 5 2 1 2 3 15 17 15 15 14 13 13 13 12 10 13 15 12 10 11 10 9 8 6 3 3 2 3 2 3 2 3 3 3 2 4 3 1 2 2 4 5 3 4 3 3
5 2 3 3 6 3 3 1 8 18 21 20 19 16 16 13 8 9 10 13 14 14 13 11 11 8 7 4 3 3 2 2 0 1 3 3 5 3 3 4 3 3 3 4 5 5 3 2 3
3 7 5 5 7 4 3 5 6 6 8 11 14 16 15 13 10 9 10 12 12 13 14 14 13 11 7 5 4 3 3 2 1 2 3 3 5 5 5 5 3 3 3 4 5 5 6 4 4
7 10 7 8 6 5 6 6 8 6 7 11 13 11 12 9 9 12 12 12 14 16 14 13 13 11 9 7 6 6 4 4 4 3 2 4 5 5 4 5 4 5 4 5 5 4 3 3 5
12 12 13 8 4 3 2 2 9 4 15 16 14 16 14 11 12 14 17 18 18 14 14 12 12 11 10 9 9 8 4 3 1 2 5 4 3 4 4 5 5 5 4 4 6 5 5 3 4
4 8 8 6 4 2 8 7 12 9 21 18 10 16 17 12 13 14 15 12 12 9 9 11 13 12 10 9 8 9 8 5 3 3 3 4 3 3 4 5 5 4 4 4 4 5 5 4 2
7 8 3 4 2 8 6 5 19 9 7 17 22 18 19 15 14 15 13 13 12 14 12 11 12 13 10 10 9 9 8 7 7 6 4 5 3 3 6 5 5 4 4 5 4 4 4 4 3
8 10 9 8 6 6 6 7 13 6 8 10 14 19 19 18 16 18 17 17 17 17 15 14 14 12 12 10 9 7 7 5 5 5 4 4 4 4 3 4 5 5 5 4 4 2 3 4 4
4 2 4 9 3 3 5 8 10 5 6 6 9 16 20 21 16 18 17 16 17 16 17 17 15 14 12 12 7 7 6 7 6 6 4 3 4 4 4 5 5 5 5 5 5 4 5 5 4
5 8 4 4 5 4 6 5 8 5 7 8 9 15 18 17 17 14 15 16 15 16 17 15 13 16 13 12 10 9 9 6 7 6 6 6 5 4 5 6 5 4 5 6 6 4 4 4 4
3 0 6 6 5 7 3 9 10 11 12 17 13 12 15 15 14 13 11 14 13 9 7 6 7 8 7 10 8 7 6 8 6 6 6 6 4 5 5 5 5 4 5 5 5 6 3 2 4
5 8 7 7 4 1 4 10 3 11 12 13 13 13 13 14 13 12 10 10 11 15 14 10 7 3 4 5 6 8 7 6 6 6 6 6 6 4 6 4 5 6 6 5 1 7 7 6 5
Wind_Direction
111 83 30 29 58 63 14 5 80 118 139 171 164 147 125 42 54 174 127 165 146 159 145 134 126 125 120 118 116 114 112 109 106 106 105 102 103 101 100 101 101 99 97 96 97 97 98 107 114
124 92 17 67 83 81 330 15 139 147 120 96 100 111 64 70 65 120 124 171 151 153 137 133 136 134 127 124 122 119 112 108 108 108 111 111 110 105 103 101 102 101 103 96 99 102 108 112 115
114 96 42 88 108 127 152 206 193 130 145 99 107 53 76 81 113 148 143 143 143 132 135 145 143 142 136 134 128 121 119 115 112 111 111 119 118 114 109 97 100 101 103 105 108 115 124 117 123
114 81 333 82 108 70 140 145 124 119 76 69 111 66 76 121 144 148 139 140 124 122 122 149 148 146 143 142 139 133 132 129 125 126 119 120 119 117 122 109 98 93 103 110 114 117 127 132 129
62 83 54 62 35 65 90 126 123 136 75 98 109 82 83 147 113 128 140 142 140 141 153 151 155 152 150 147 148 143 147 140 137 141 133 138 133 132 141 129 124 121 125 119 124 124 136 136 141
66 89 68 86 94 103 123 135 107 92 103 107 93 91 107 136 133 148 152 145 146 145 145 163 160 159 158 160 161 160 165 159 157 161 160 153 163 163 158 164 147 183 185 166 153 141 146 146 150
98 76 130 117 111 151 150 134 115 128 113 106 150 87 83 142 148 141 134 137 149 149 152 155 168 168 174 171 169 177 180 178 175 174 175 190 213 161 153 178 164 169 171 177 167 164 152 157 167
96 92 93 171 156 151 147 122 117 124 118 104 157 143 169 174 147 114 126 136 148 156 163 165 169 174 159 178 179 188 186 188 185 189 188 192 186 196 170 163 183 169 160 171 174 188 166 157 170
92 60 105 153 161 140 148 121 145 86 139 170 154 122 139 147 143 127 135 139 148 170 176 174 175 172 171 192 210 193 199 197 194 186 195 202 150 248 247 180 194 181 166 161 172 188 173 169 170
73 91 243 194 149 150 160 139 159 115 164 97 90 92 128 145 160 157 161 165 172 184 183 181 178 175 183 196 216 189 216 216 197 164 182 166 171 216 224 194 193 198 176 181 173 169 188 165 124
145 187 188 185 140 156 151 148 166 138 191 186 154 141 148 154 168 173 180 179 182 184 176 184 186 190 202 227 196 195 192 210 226 188 185 200 131 356 146 141 227 194 207 164 120 162 162 168 153
230 224 154 142 152 152 161 147 144 170 201 161 152 149 157 168 177 181 187 185 179 178 184 183 190 186 203 224 199 195 192 200 218 208 203 191 165 199 203 187 155 210 191 165 250 183 196 180 170
55 340 24 142 165 166 147 173 163 200 138 139 134 156 159 172 184 192 189 182 178 185 183 184 184 191 200 214 204 189 216 187 214 226 226 192 186 201 217 220 200 198 172 170 198 232 226 201 186
37 90 359 54 36 133 129 128 124 193 144 149 149 166 173 181 186 186 186 185 188 192 189 182 188 188 187 207 208 200 200 216 214 210 215 202 194 192 210 197 212 196 182 189 192 202 234 223 199
346 60 54 44 350 106 81 6 181 148 151 166 170 175 186 195 188 195 193 187 183 199 184 185 181 183 191 206 212 216 206 198 202 216 202 190 203 199 215 208 195 189 182 180 174 217 195 190 217
37 42 90 131 31 91 101 240 145 157 151 178 185 193 199 197 205 201 193 188 185 168 178 176 183 184 196 207 182 222 182 199 213 197 165 177 202 208 220 167 229 188 178 171 171 184 179 146 173
13 154 246 152 188 118 112 130 168 171 166 177 194 203 215 217 214 213 196 185 174 175 167 178 166 175 184 179 185 158 196 170 223 160 148 178 201 194 174 167 226 189 126 202 142 123 148 159 143
222 183 249 202 152 161 159 183 166 178 180 188 199 209 220 217 222 203 195 185 179 179 175 180 175 173 174 164 134 97 298 259 216 186 178 198 238 186 154 173 222 197 180 204 136 124 107 122 146
192 314 349 352 190 353 167 100 184 185 193 193 205 210 216 220 224 204 190 184 170 170 174 181 171 180 162 159 144 134 221 221 254 201 255 183 234 187 150 212 193 182 171 190 135 108 97 71 105
190 207 139 250 142 112 56 162 197 202 200 194 197 207 218 224 181 196 175 174 173 175 180 183 187 177 186 159 139 152 190 208 2 187 244 188 235 237 195 202 190 152 112 134 139 128 136 90 186
165 197 175 183 136 66 102 318 214 226 235 224 218 209 213 216 182 185 173 177 170 178 185 185 186 183 185 160 123 82 69 46 29 257 256 233 224 233 203 219 176 185 146 174 169 159 154 156 220
195 184 171 163 153 193 154 267 259 179 244 224 216 209 215 199 190 178 181 178 183 192 190 184 183 182 186 158 148 161 176 177 221 218 215 250 231 238 203 207 190 188 172 181 188 168 163 140 167
221 163 183 204 84 93 0 55 259 118 214 232 212 210 216 203 185 181 187 190 193 184 186 181 180 185 189 175 170 176 181 190 175 213 252 250 216 227 210 186 219 220 193 191 180 170 184 183 164
90 93 52 52 59 11 200 166 277 196 217 210 209 207 210 194 194 194 196 187 186 178 174 176 176 187 186 177 180 184 183 180 180 243 241 240 175 212 220 210 208 211 183 179 197 194 193 199 201
82 94 33 6 356 229 104 150 240 263 215 201 194 193 206 196 191 196 177 180 178 179 178 174 178 189 187 183 186 189 192 185 197 194 200 191 192 202 212 190 196 195 202 182 160 176 194 191 196
191 150 155 181 189 248 73 216 252 265 249 160 180 183 198 203 192 196 191 184 186 185 179 178 184 190 188 186 196 196 180 176 204 219 197 200 205 218 215 207 193 196 195 189 168 192 202 193 210
233 177 204 101 22 91 223 279 302 19 92 132 141 174 197 208 195 200 196 193 188 182 189 184 184 193 191 192 185 192 188 176 194 212 211 206 201 241 211 229 213 204 193 185 181 203 210 201 205
178 162 72 350 155 228 291 288 245 271 187 174 159 184 197 203 206 196 202 198 191 190 189 184 187 192 189 190 190 193 198 188 189 175 200 211 222 224 230 201 210 217 209 198 194 207 216 207 223
45 334 55 119 112 156 192 263 222 222 199 181 186 186 188 189 200 201 190 195 188 192 162 178 191 184 179 189 183 177 189 203 186 190 197 211 219 201 211 204 214 238 233 230 219 226 226 231 6
198 197 134 124 231 154 158 266 271 240 211 151 188 193 191 189 187 195 152 157 100 102 82 20 356 300 233 213 183 185 186 200 182 202 213 197 219 201 202 193 233 228 232 233 305 67 71 95 93